Time,TemperatureF,DewpointF,PressureIn,WindDirection,WindDirectionDegrees,WindSpeedMPH,WindSpeedGustMPH,Humidity,HourlyPrecipIn,Conditions,Clouds,dailyrainin,SoftwareType,DateUTC
2013-04-27 00:07:00,40.3,37.0,30.32,NE,52,2.0,-999.0,86,-99.99,,,0.12,weatherlink.com 1.10,2013-04-27 04:07:00,
2013-04-27 00:22:00,40.1,37.0,30.32,NE,52,1.0,-999.0,87,-99.99,,,0.12,weatherlink.com 1.10,2013-04-27 04:22:00,
2013-04-27 00:37:00,39.5,36.0,30.31,NE,52,0.0,-999.0,87,-99.99,,,0.12,weatherlink.com 1.10,2013-04-27 04:37:00,
2013-04-27 00:52:00,38.7,36.0,30.31,NE,52,0.0,-999.0,88,-99.99,,,0.12,weatherlink.com 1.10,2013-04-27 04:52:00,
2013-04-27 01:07:00,38.4,36.0,30.32,NE,52,0.0,-999.0,89,-99.99,,,0.12,weatherlink.com 1.10,2013-04-27 05:07:00,
2013-04-27 01:22:00,38.2,35.0,30.31,NE,52,2.0,-999.0,89,-99.99,,,0.12,weatherlink.com 1.10,2013-04-27 05:22:00,
2013-04-27 01:37:00,38.3,36.0,30.31,NE,49,2.0,-999.0,90,-99.99,,,0.12,weatherlink.com 1.10,2013-04-27 05:37:00,
2013-04-27 01:52:00,38.0,35.0,30.32,NE,49,0.0,-999.0,90,-99.99,,,0.12,weatherlink.com 1.10,2013-04-27 05:52:00,
2013-04-27 02:07:00,37.1,35.0,30.32,NE,49,0.0,-999.0,91,-99.99,,,0.12,weatherlink.com 1.10,2013-04-27 06:07:00,
2013-04-27 02:22:00,37.1,35.0,30.32,NE,49,0.0,-999.0,91,-99.99,,,0.12,weatherlink.com 1.10,2013-04-27 06:22:00,
2013-04-27 02:38:00,36.8,35.0,30.32,NE,49,0.0,-999.0,92,-99.99,,,0.12,weatherlink.com 1.10,2013-04-27 06:38:00,
2013-04-27 02:53:00,36.3,34.0,30.32,NE,49,0.0,-999.0,91,-99.99,,,0.12,weatherlink.com 1.10,2013-04-27 06:53:00,
2013-04-27 03:08:00,34.8,33.0,30.31,NE,49,0.0,-999.0,91,-99.99,,,0.12,weatherlink.com 1.10,2013-04-27 07:08:00,
2013-04-27 03:23:00,34.4,32.0,30.31,NE,49,0.0,-999.0,92,-99.99,,,0.12,weatherlink.com 1.10,2013-04-27 07:23:00,
2013-04-27 03:38:00,34.2,32.0,30.31,NE,49,0.0,-999.0,92,-99.99,,,0.12,weatherlink.com 1.10,2013-04-27 07:38:00,
2013-04-27 03:53:00,33.8,32.0,30.31,NE,49,2.0,-999.0,93,-99.99,,,0.12,weatherlink.com 1.10,2013-04-27 07:53:00,
2013-04-27 04:08:00,33.4,32.0,30.32,NE,49,0.0,-999.0,93,-99.99,,,0.12,weatherlink.com 1.10,2013-04-27 08:08:00,
2013-04-27 04:23:00,32.4,31.0,30.31,NE,49,0.0,-999.0,93,-99.99,,,0.12,weatherlink.com 1.10,2013-04-27 08:23:00,
2013-04-27 04:38:00,32.5,31.0,30.31,NE,49,0.0,-999.0,93,-99.99,,,0.12,weatherlink.com 1.10,2013-04-27 08:38:00,
2013-04-27 04:53:00,32.7,31.0,30.31,NE,49,0.0,-999.0,94,-99.99,,,0.12,weatherlink.com 1.10,2013-04-27 08:53:00,
2013-04-27 05:08:00,32.4,31.0,30.31,NE,49,0.0,-999.0,94,-99.99,,,0.12,weatherlink.com 1.10,2013-04-27 09:08:00,
2013-04-27 05:23:00,32.0,32.0,30.32,NE,49,0.0,-999.0,100,-99.99,,,0.12,weatherlink.com 1.10,2013-04-27 09:23:00,
2013-04-27 05:38:00,32.2,31.0,30.31,NE,49,0.0,-999.0,94,-99.99,,,0.12,weatherlink.com 1.10,2013-04-27 09:38:00,
2013-04-27 05:53:00,33.5,32.0,30.31,NE,49,2.0,-999.0,95,-99.99,,,0.12,weatherlink.com 1.10,2013-04-27 09:53:00,
2013-04-27 06:08:00,32.6,31.0,30.31,NE,49,1.0,-999.0,94,-99.99,,,0.12,weatherlink.com 1.10,2013-04-27 10:08:00,
2013-04-27 06:23:00,31.9,30.0,30.31,NE,49,0.0,-999.0,94,-99.99,,,0.12,weatherlink.com 1.10,2013-04-27 10:23:00,
2013-04-27 06:38:00,32.9,32.0,30.31,ENE,64,0.0,-999.0,95,-99.99,,,0.12,weatherlink.com 1.10,2013-04-27 10:38:00,
2013-04-27 06:53:00,34.3,33.0,30.31,ENE,64,0.0,-999.0,95,-99.99,,,0.12,weatherlink.com 1.10,2013-04-27 10:53:00,
2013-04-27 07:08:00,32.6,31.0,30.32,ENE,64,1.0,-999.0,95,-99.99,,,0.12,weatherlink.com 1.10,2013-04-27 11:08:00,
2013-04-27 07:23:00,34.3,33.0,30.31,ENE,77,3.0,-999.0,95,-99.99,,,0.12,weatherlink.com 1.10,2013-04-27 11:23:00,
2013-04-27 07:38:00,35.0,34.0,30.32,ENE,76,0.0,-999.0,95,-99.99,,,0.12,weatherlink.com 1.10,2013-04-27 11:38:00,
2013-04-27 07:53:00,36.0,35.0,30.32,ENE,77,0.0,-999.0,96,-99.99,,,0.12,weatherlink.com 1.10,2013-04-27 11:53:00,
2013-04-27 08:08:00,37.1,36.0,30.32,ENE,77,0.0,-999.0,96,-99.99,,,0.12,weatherlink.com 1.10,2013-04-27 12:08:00,
2013-04-27 08:23:00,37.6,37.0,30.33,ENE,77,1.0,-999.0,96,-99.99,,,0.12,weatherlink.com 1.10,2013-04-27 12:23:00,
2013-04-27 08:38:00,39.1,38.0,30.33,ENE,77,0.0,-999.0,96,-99.99,,,0.12,weatherlink.com 1.10,2013-04-27 12:38:00,
2013-04-27 08:53:00,41.0,40.0,30.33,ENE,77,0.0,-999.0,96,-99.99,,,0.12,weatherlink.com 1.10,2013-04-27 12:53:00,
2013-04-27 09:08:00,42.4,41.0,30.33,ENE,76,0.0,-999.0,95,-99.99,,,0.12,weatherlink.com 1.10,2013-04-27 13:08:00,
2013-04-27 09:23:00,43.7,42.0,30.33,SE,126,1.0,-999.0,94,-99.99,,,0.12,weatherlink.com 1.10,2013-04-27 13:23:00,
2013-04-27 09:38:00,45.6,43.0,30.32,ESE,123,6.0,-999.0,91,-99.99,,,0.12,weatherlink.com 1.10,2013-04-27 13:38:00,
2013-04-27 09:53:00,47.2,44.0,30.33,SE,130,3.0,-999.0,89,-99.99,,,0.12,weatherlink.com 1.10,2013-04-27 13:53:00,
2013-04-27 10:08:00,48.7,45.0,30.32,SSE,151,5.0,-999.0,87,-99.99,,,0.12,weatherlink.com 1.10,2013-04-27 14:08:00,
2013-04-27 10:23:00,49.7,45.0,30.31,SSE,150,4.0,-999.0,85,-99.99,,,0.12,weatherlink.com 1.10,2013-04-27 14:23:00,
2013-04-27 10:38:00,50.3,45.0,30.31,SSE,157,4.0,-999.0,82,-99.99,,,0.12,weatherlink.com 1.10,2013-04-27 14:38:00,
2013-04-27 10:53:00,51.1,45.0,30.31,SE,129,5.0,-999.0,81,-99.99,,,0.00,weatherlink.com 1.10,2013-04-27 14:53:00,
2013-04-27 11:08:00,52.2,47.0,30.31,SE,136,6.0,-999.0,82,-99.99,,,0.00,weatherlink.com 1.10,2013-04-27 15:08:00,
2013-04-27 11:23:00,53.2,47.0,30.31,SSE,149,4.0,-999.0,80,-99.99,,,0.00,weatherlink.com 1.10,2013-04-27 15:23:00,
2013-04-27 11:38:00,53.3,47.0,30.30,South,184,5.0,-999.0,79,-99.99,,,0.00,weatherlink.com 1.10,2013-04-27 15:38:00,
2013-04-27 11:53:00,54.1,47.0,30.30,SSW,192,6.0,-999.0,78,-99.99,,,0.00,weatherlink.com 1.10,2013-04-27 15:53:00,
2013-04-27 12:08:00,55.0,48.0,30.30,SSE,159,6.0,-999.0,78,-99.99,,,0.00,weatherlink.com 1.10,2013-04-27 16:08:00,
2013-04-27 12:23:00,55.2,48.0,30.30,SSE,163,7.0,-999.0,78,-99.99,,,0.00,weatherlink.com 1.10,2013-04-27 16:23:00,
2013-04-27 12:38:00,55.8,49.0,30.30,SE,129,7.0,-999.0,78,-99.99,,,0.00,weatherlink.com 1.10,2013-04-27 16:38:00,
2013-04-27 12:53:00,55.8,48.0,30.30,SSE,155,3.0,-999.0,76,-99.99,,,0.00,weatherlink.com 1.10,2013-04-27 16:53:00,
2013-04-27 13:08:00,56.6,49.0,30.29,SSE,160,7.0,-999.0,77,-99.99,,,0.00,weatherlink.com 1.10,2013-04-27 17:08:00,
2013-04-27 13:23:00,57.5,51.0,30.28,SSE,152,5.0,-999.0,79,-99.99,,,0.00,weatherlink.com 1.10,2013-04-27 17:23:00,
2013-04-27 13:38:00,58.4,52.0,30.28,SE,137,4.0,-999.0,80,-99.99,,,0.00,weatherlink.com 1.10,2013-04-27 17:38:00,
2013-04-27 13:53:00,58.9,50.0,30.27,SSE,150,7.0,-999.0,73,-99.99,,,0.00,weatherlink.com 1.10,2013-04-27 17:53:00,
2013-04-27 14:08:00,59.0,50.0,30.27,SE,133,7.0,-999.0,73,-99.99,,,0.00,weatherlink.com 1.10,2013-04-27 18:08:00,
2013-04-27 14:23:00,59.9,50.0,30.26,South,181,5.0,-999.0,70,-99.99,,,0.00,weatherlink.com 1.10,2013-04-27 18:23:00,
2013-04-27 14:39:00,61.1,53.0,30.26,South,180,9.0,-999.0,74,-99.99,,,0.00,weatherlink.com 1.10,2013-04-27 18:39:00,
2013-04-27 14:54:00,61.2,52.0,30.26,SE,146,8.0,-999.0,72,-99.99,,,0.00,weatherlink.com 1.10,2013-04-27 18:54:00,
2013-04-27 15:09:00,61.4,53.0,30.25,SSE,153,7.0,-999.0,73,-99.99,,,0.00,weatherlink.com 1.10,2013-04-27 19:09:00,
2013-04-27 15:24:00,61.3,51.0,30.25,SSE,148,6.0,-999.0,70,-99.99,,,0.00,weatherlink.com 1.10,2013-04-27 19:24:00,
2013-04-27 15:39:00,60.4,51.0,30.25,South,172,8.0,-999.0,70,-99.99,,,0.00,weatherlink.com 1.10,2013-04-27 19:39:00,
2013-04-27 15:54:00,61.4,52.0,30.24,SSE,160,9.0,-999.0,71,-99.99,,,0.00,weatherlink.com 1.10,2013-04-27 19:54:00,
2013-04-27 16:09:00,61.8,52.0,30.23,SE,145,6.0,-999.0,70,-99.99,,,0.00,weatherlink.com 1.10,2013-04-27 20:09:00,
2013-04-27 16:24:00,60.9,51.0,30.23,SSE,163,10.0,-999.0,70,-99.99,,,0.00,weatherlink.com 1.10,2013-04-27 20:24:00,
2013-04-27 16:39:00,59.9,50.0,30.24,SSE,150,12.0,-999.0,71,-99.99,,,0.00,weatherlink.com 1.10,2013-04-27 20:39:00,
2013-04-27 16:54:00,60.5,51.0,30.24,SE,136,8.0,-999.0,70,-99.99,,,0.00,weatherlink.com 1.10,2013-04-27 20:54:00,
2013-04-27 17:09:00,60.2,51.0,30.23,SE,140,7.0,-999.0,71,-99.99,,,0.00,weatherlink.com 1.10,2013-04-27 21:09:00,
2013-04-27 17:24:00,59.0,50.0,30.23,SE,146,6.0,-999.0,72,-99.99,,,0.00,weatherlink.com 1.10,2013-04-27 21:24:00,
2013-04-27 17:39:00,59.4,50.0,30.23,SSE,151,11.0,-999.0,72,-99.99,,,0.00,weatherlink.com 1.10,2013-04-27 21:39:00,
2013-04-27 17:54:00,58.6,50.0,30.23,SE,129,9.0,-999.0,73,-99.99,,,0.00,weatherlink.com 1.10,2013-04-27 21:54:00,
2013-04-27 18:09:00,59.2,51.0,30.23,SSE,156,5.0,-999.0,73,-99.99,,,0.00,weatherlink.com 1.10,2013-04-27 22:09:00,
2013-04-27 18:24:00,58.6,50.0,30.23,SE,142,6.0,-999.0,72,-99.99,,,0.00,weatherlink.com 1.10,2013-04-27 22:24:00,
2013-04-27 18:39:00,58.7,50.0,30.23,SE,146,5.0,-999.0,72,-99.99,,,0.00,weatherlink.com 1.10,2013-04-27 22:39:00,
2013-04-27 18:54:00,59.0,50.0,30.22,SSE,161,7.0,-999.0,71,-99.99,,,0.00,weatherlink.com 1.10,2013-04-27 22:54:00,
2013-04-27 19:09:00,58.7,50.0,30.22,SE,145,8.0,-999.0,73,-99.99,,,0.00,weatherlink.com 1.10,2013-04-27 23:09:00,
2013-04-27 19:24:00,57.9,49.0,30.21,SE,144,4.0,-999.0,72,-99.99,,,0.00,weatherlink.com 1.10,2013-04-27 23:24:00,
2013-04-27 19:39:00,57.2,49.0,30.21,SE,132,8.0,-999.0,74,-99.99,,,0.00,weatherlink.com 1.10,2013-04-27 23:39:00,
2013-04-27 19:54:00,56.2,48.0,30.20,ESE,122,6.0,-999.0,75,-99.99,,,0.00,weatherlink.com 1.10,2013-04-27 23:54:00,
2013-04-27 20:09:00,55.1,48.0,30.20,SE,130,5.0,-999.0,76,-99.99,,,0.00,weatherlink.com 1.10,2013-04-28 00:09:00,
2013-04-27 20:24:00,54.3,47.0,30.20,ESE,123,4.0,-999.0,77,-99.99,,,0.00,weatherlink.com 1.10,2013-04-28 00:24:00,
2013-04-27 20:39:00,53.3,47.0,30.20,SE,127,2.0,-999.0,78,-99.99,,,0.00,weatherlink.com 1.10,2013-04-28 00:39:00,
2013-04-27 20:54:00,52.3,46.0,30.19,SE,132,2.0,-999.0,79,-99.99,,,0.00,weatherlink.com 1.10,2013-04-28 00:54:00,
2013-04-27 21:09:00,51.7,46.0,30.20,SE,132,0.0,-999.0,80,-99.99,,,0.00,weatherlink.com 1.10,2013-04-28 01:09:00,
2013-04-27 21:24:00,50.5,46.0,30.20,SE,132,0.0,-999.0,83,-99.99,,,0.00,weatherlink.com 1.10,2013-04-28 01:24:00,
2013-04-27 21:39:00,48.6,43.0,30.20,SE,132,0.0,-999.0,82,-99.99,,,0.00,weatherlink.com 1.10,2013-04-28 01:39:00,
2013-04-27 21:54:00,47.2,44.0,30.20,SE,132,0.0,-999.0,87,-99.99,,,0.00,weatherlink.com 1.10,2013-04-28 01:54:00,
2013-04-27 22:09:00,48.1,44.0,30.20,SE,132,2.0,-999.0,87,-99.99,,,0.00,weatherlink.com 1.10,2013-04-28 02:09:00,
2013-04-27 22:24:00,46.9,43.0,30.20,SE,132,0.0,-999.0,86,-99.99,,,0.00,weatherlink.com 1.10,2013-04-28 02:24:00,
2013-04-27 22:39:00,46.9,43.0,30.20,SE,132,1.0,-999.0,87,-99.99,,,0.00,weatherlink.com 1.10,2013-04-28 02:39:00,
2013-04-27 22:54:00,46.2,43.0,30.20,SE,132,0.0,-999.0,87,-99.99,,,0.00,weatherlink.com 1.10,2013-04-28 02:54:00,
2013-04-27 23:09:00,46.4,43.0,30.20,SE,130,1.0,-999.0,87,-99.99,,,0.00,weatherlink.com 1.10,2013-04-28 03:09:00,
2013-04-27 23:24:00,46.0,42.0,30.19,SE,130,0.0,-999.0,86,-99.99,,,0.00,weatherlink.com 1.10,2013-04-28 03:24:00,
2013-04-27 23:40:00,43.9,41.0,30.19,SE,130,0.0,-999.0,89,-99.99,,,0.00,weatherlink.com 1.10,2013-04-28 03:40:00,
2013-04-27 23:55:00,42.3,39.0,30.19,SE,130,0.0,-999.0,89,-99.99,,,0.00,weatherlink.com 1.10,2013-04-28 03:55:00,